Cloud_Cover
82 16 0 1 2 0 0 4 5 5 5 5 3 3 5 5 4 6 28 15 78 30 32 2 2 0 0 0 0 0 0 0 5 0 41 85 99 82 5 0 1 17 13 13 8 2 7 0 0
52 51 82 100 95 74 75 49 5 5 5 5 4 5 5 4 5 11 68 23 83 20 17 5 5 0 0 0 0 0 0 1 3 1 2 100 100 55 5 6 11 5 90 93 48 6 4 0 0
66 96 71 12 80 62 24 5 5 5 89 99 51 28 65 57 4 59 11 2 21 5 2 3 3 0 0 0 0 0 0 0 5 5 4 1 92 100 85 5 4 9 17 65 38 5 78 2 0
0 7 78 99 89 48 83 96 60 37 0 20 92 85 72 99 5 29 100 99 100 99 35 2 1 1 0 5 5 4 0 0 0 2 5 5 4 97 100 71 5 82 76 87 13 5 66 5 1
0 0 0 0 0 0 0 0 4 6 5 5 0 36 97 100 51 14 27 22 94 100 100 56 2 0 0 0 5 4 0 2 0 0 3 6 6 5 5 94 99 100 100 96 5 4 67 13 5
0 0 0 0 0 0 0 0 0 0 0 0 0 0 0 22 82 99 21 68 19 84 95 100 100 22 0 2 0 0 0 0 5 4 0 5 5 5 5 28 100 100 100 99 10 36 6 16 5
0 0 0 0 0 0 0 0 0 0 0 0 0 0 0 0 0 0 1 6 56 87 9 1 0 11 13 0 1 0 1 0 5 5 1 0 2 5 5 5 21 100 100 100 100 100 83 26 85
0 0 0 0 0 0 0 0 0 0 0 0 0 0 0 0 0 0 0 0 0 0 3 77 100 52 4 72 7 5 5 0 6 17 12 0 0 0 1 5 5 5 100 100 100 100 100 23 68
0 0 0 0 0 0 0 0 0 0 0 0 0 0 0 0 0 0 0 0 0 0 1 20 100 100 100 78 2 5 5 19 40 100 100 5 3 0 0 0 5 5 14 95 100 100 100 100 98
0 0 0 0 0 0 0 0 0 0 0 5 0 0 0 0 0 0 0 0 0 0 0 5 5 90 100 100 17 0 2 51 99 100 68 42 6 4 0 0 0 5 27 5 5 50 44 6 94
0 1 3 17 0 0 0 0 0 0 5 8 0 0 0 0 0 0 0 0 0 0 0 0 11 10 37 68 7 11 0 5 36 98 100 36 23 19 18 11 5 1 3 5 5 24 28 7 99
7 5 3 5 5 2 0 0 0 0 5 5 2 0 0 0 0 0 0 0 0 0 0 0 0 1 29 57 92 44 18 2 14 94 100 68 41 49 73 12 5 5 0 5 5 16 5 23 96
22 92 25 9 39 3 0 2 0 2 5 1 0 0 0 0 0 0 0 0 0 0 0 0 0 0 0 4 50 99 100 91 1 16 100 95 99 100 60 5 26 20 5 0 60 60 96 66 47
5 5 16 84 22 5 0 1 0 5 1 0 0 0 2 2 0 0 0 0 0 0 0 0 0 0 0 0 13 74 98 100 100 17 8 100 100 100 99 10 5 19 6 5 5 59 100 100 76
13 8 75 100 20 5 0 4 5 0 0 0 5 3 0 5 5 0 0 0 0 0 0 0 0 0 0 0 0 4 100 100 14 13 5 5 97 100 100 45 89 52 27 5 40 89 100 100 98
5 5 63 92 12 5 0 1 0 0 0 0 0 0 3 0 5 5 0 0 0 0 0 0 0 0 0 0 0 0 4 100 100 10 7 2 5 91 100 80 59 100 100 59 70 100 100 98 100
1 9 10 5 13 1 0 0 0 2 5 5 0 0 2 5 0 0 0 0 0 0 0 0 0 0 0 0 0 0 0 11 100 100 6 5 5 37 100 100 68 99 100 100 100 100 85 100 100
2 6 5 5 4 0 1 0 5 5 5 3 2 2 0 0 3 0 0 0 0 0 0 0 0 0 0 0 0 0 0 0 44 100 91 5 5 5 66 100 100 100 98 100 100 100 88 60 100
55 26 84 5 5 4 5 5 46 9 0 0 23 100 39 15 4 0 0 0 0 3 0 0 1 0 0 0 0 0 0 0 1 68 100 91 5 5 5 98 100 100 100 100 100 100 100 99 96
96 66 59 4 5 30 23 0 0 5 98 100 50 55 24 95 80 76 6 0 5 6 0 17 10 21 2 0 0 0 0 0 0 0 72 100 36 5 5 57 100 100 100 100 100 100 100 100 91
0 0 4 5 5 4 13 3 2 2 55 100 100 100 100 78 52 67 54 40 58 88 75 92 94 77 66 30 0 0 0 0 18 23 6 15 100 20 45 6 100 100 100 100 100 100 100 100 100
0 4 5 5 5 2 0 4 0 3 56 63 100 100 100 100 99 100 100 99 100 100 100 100 100 100 100 92 23 0 0 0 2 21 16 11 44 98 33 23 13 93 100 100 100 100 100 100 100
35 98 58 22 69 9 2 3 100 98 100 100 100 100 100 100 100 100 100 100 100 100 100 100 100 100 100 100 100 52 0 2 2 34 31 10 13 97 100 49 56 21 71 89 100 100 100 100 100
86 58 4 5 79 72 16 100 100 100 100 100 100 100 100 100 100 100 100 100 100 100 100 100 100 100 100 100 100 100 42 4 17 22 25 59 100 58 100 93 76 39 31 44 72 100 99 100 100
0 10 7 5 3 2 71 100 100 100 100 100 100 100 100 100 100 100 100 100 100 100 100 100 100 100 100 100 100 100 100 84 26 94 100 100 100 100 100 100 100 97 47 31 47 73 52 95 94
87 68 93 100 85 35 81 100 100 100 100 100 100 100 100 100 100 100 100 100 100 100 100 100 100 100 100 100 100 100 100 100 100 100 100 100 100 100 100 100 93 54 42 31 22 41 52 51 41
97 7 61 100 0 35 84 100 100 100 100 100 100 100 100 100 100 100 100 100 100 100 100 100 100 100 100 100 100 100 100 100 100 100 100 100 100 100 100 100 100 100 60 51 40 67 100 60 21
20 55 40 54 48 100 100 100 100 100 100 100 100 100 100 100 100 100 100 100 100 100 100 100 100 100 100 100 100 100 100 100 100 100 100 100 100 100 93 100 100 100 94 100 100 100 99 66 49
25 40 32 77 36 100 100 100 100 100 100 100 100 100 100 100 100 100 100 100 100 100 100 100 100 100 100 100 100 100 100 100 100 100 100 100 100 100 100 100 100 100 100 79 100 89 97 71 96
91 7 81 100 99 100 100 100 100 100 100 100 100 100 100 100 100 100 100 100 100 100 100 100 100 100 100 100 100 100 100 100 100 100 100 100 100 100 100 100 100 100 100 100 100 100 100 52 100